[Iaude] MPEC K80: 2017 BS236 [a=44.02,e=0.17,i=23.9,H=7.67]

mpec at cfa.harvard.edu mpec at cfa.harvard.edu
Thu May 23 13:19:38 EDT 2024


M.P.E.C. 2024-K80                                  Issued 2024 May 23, 17:18 UT

     The Minor Planet Electronic Circulars contain information on unusual
         minor planets, routine data on comets and natural satellites,
         and occasional editorial announcements.  They are published
    on behalf of Division F of the International Astronomical Union by the
          Minor Planet Center, Smithsonian Astrophysical Observatory,
                          Cambridge, MA 02138, U.S.A.
			  
             Prepared using the Tamkin Foundation Computer Network

                              MPC at CFA.HARVARD.EDU
            URL https://www.minorplanetcenter.net/    ISSN 1523-6714

                                   2017 BS236                                   


Additional Observations:
     K17BN6S 1C2016 04 02.39340712 24 01.59 +00 13 26.4                WEK080T09
     K17BN6S 1C2016 04 02.52598012 24 00.96 +00 13 29.6                WEK080T09
     K17BN6S 1C2016 06 05.31148812 20 27.88 +00 27 41.5                WEK080T09
     K17BN6S 1C2016 06 05.35611412 20 27.82 +00 27 41.4                WEK080T09

Observer details:
T09 Subaru Telescope, Maunakea.  Observer .  Measurer S. Deen.  8.3-m Subaru
    Telescope + CCD.

Orbital elements:
2017 BS236                                                                      
Epoch 2024 Mar. 31.0 TT = JDT 2460400.5                 Alexandersen            
M  74.83912              (2000.0)            P               Q                  
n   0.00337451     Peri.   89.22600     -0.16635776     -0.98283294             
a  44.0212514      Node    11.33463     +0.66305554     -0.17137969             
e   0.1743325      Incl.   23.94841     +0.72985098     -0.06832578             
P 292              H    7.67          G   0.15           U   7                  
Residuals in seconds of arc
160402 T09  0.0   0.0     170128 T09  0.0   0.1-    170202 T09  0.2+  0.0
160402 T09  0.0   0.1+    170128 T09  0.1+  0.0     170202 T09  0.0   0.0
160605 T09  0.0   0.0     170128 T09  0.1-  0.0     170223 T09  0.0   0.0
160605 T09  0.0   0.1-    170128 T09  0.0   0.2+    170223 T09  0.1-  0.0
170123 T09  0.1+  0.1-    170128 T09  0.0   0.1-    170223 T09  0.0   0.0
170123 T09  0.1-  0.0     170128 T09  0.0   0.1-
170123 T09  0.0   0.0     170202 T09  0.0   0.2+

Ephemeris:
2017 BS236               a,e,i = 44.02, 0.17, 24                 q = 36.3469
Date    TT    R. A. (2000) Decl.     Delta      r    Elong.  Phase     V
2024 04 23    12 51 32.6 -07 23 55  42.3788 43.3343   161.7     0.4    24.1
...
2024 05 08    12 50 32.0 -07 18 41  42.4925 43.3412   146.9     0.7    24.1
...
2024 05 16    12 50 04.0 -07 16 17  42.5765 43.3448   139.0     0.9    24.1
...
2024 05 22    12 49 45.4 -07 14 42  42.6488 43.3476   133.2     1.0    24.2
2024 05 23    12 49 42.6 -07 14 28  42.6615 43.3480   132.2     1.0    24.2
2024 05 24    12 49 39.8 -07 14 14  42.6745 43.3485   131.2     1.0    24.2
...
2024 05 30    12 49 24.4 -07 12 58  42.7561 43.3512   125.4     1.1    24.2
...
2024 06 07    12 49 08.0 -07 11 40  42.8743 43.3549   117.7     1.2    24.2
...
2024 06 22    12 48 50.9 -07 10 36  43.1171 43.3618   103.3     1.3    24.2

M. P. C. Staff               (C) Copyright 2024 MPC           M.P.E.C. 2024-K80





More information about the Iaude mailing list